TimeCDT,TemperatureF,Dew PointF,Humidity,Sea Level PressureIn,VisibilityMPH,Wind Direction,Wind SpeedMPH,Gust SpeedMPH,PrecipitationIn,Events,Conditions,WindDirDegrees,DateUTC
12:38 AM,32.0,30.2,93,30.12,2.0,NNW,13.8,21.9,0.00,Snow,Light Snow,340,2013-04-23 05:38:00
12:49 AM,32.0,28.4,87,30.12,3.0,NNW,15.0,-,0.00,Snow,Light Snow,340,2013-04-23 05:49:00
1:06 AM,32.0,28.4,87,30.13,2.5,North,12.7,23.0,0.00,Snow,Light Snow,350,2013-04-23 06:06:00
1:21 AM,30.2,28.4,93,30.12,1.8,NNW,12.7,-,0.00,Snow,Light Snow,340,2013-04-23 06:21:00
1:51 AM,30.2,28.4,93,30.14,2.0,NNW,12.7,-,0.00,Snow,Light Snow,330,2013-04-23 06:51:00
1:53 AM,30.9,28.9,92,30.17,2.0,NNW,12.7,-,0.00,Snow,Light Snow,330,2013-04-23 06:53:00
2:20 AM,30.2,28.4,93,30.14,2.5,NNW,13.8,-,0.00,Snow,Light Snow,330,2013-04-23 07:20:00
2:29 AM,30.2,28.4,93,30.14,2.0,NNW,11.5,-,0.00,Snow,Light Snow,330,2013-04-23 07:29:00
2:53 AM,30.9,28.9,92,30.16,3.0,NNW,13.8,-,0.00,Snow,Light Snow,340,2013-04-23 07:53:00
3:03 AM,30.2,28.4,93,30.12,2.5,NNW,15.0,-,0.00,Snow,Light Snow,340,2013-04-23 08:03:00
3:11 AM,30.2,28.4,93,30.13,2.0,NNW,11.5,-,0.00,Snow,Light Snow,330,2013-04-23 08:11:00
3:14 AM,30.2,28.4,93,30.12,2.5,NNW,12.7,-,0.00,Snow,Light Snow,330,2013-04-23 08:14:00
3:28 AM,30.2,28.4,93,30.13,2.5,NNW,11.5,-,0.00,Snow,Light Snow,330,2013-04-23 08:28:00
3:34 AM,30.2,28.4,93,30.12,3.0,NNW,10.4,-,0.00,Snow,Light Snow,340,2013-04-23 08:34:00
3:53 AM,30.0,28.0,92,30.14,5.0,NNW,10.4,-,0.00,,Overcast,340,2013-04-23 08:53:00
4:08 AM,30.2,28.4,93,30.11,7.0,NNW,9.2,-,N/A,,Overcast,340,2013-04-23 09:08:00
4:26 AM,30.2,26.6,86,30.11,8.0,NNW,12.7,-,N/A,,Mostly Cloudy,330,2013-04-23 09:26:00
5:36 AM,30.2,26.6,86,30.13,10.0,NW,11.5,-,N/A,,Overcast,320,2013-04-23 10:36:00
5:53 AM,30.0,27.0,88,30.17,10.0,WNW,6.9,-,N/A,,Overcast,290,2013-04-23 10:53:00
6:53 AM,28.0,23.0,81,30.18,10.0,NW,10.4,-,N/A,,Overcast,310,2013-04-23 11:53:00
7:53 AM,26.1,21.0,81,30.18,10.0,NW,9.2,-,N/A,,Partly Cloudy,320,2013-04-23 12:53:00
8:53 AM,28.9,21.9,75,30.17,10.0,NW,9.2,-,N/A,,Clear,320,2013-04-23 13:53:00
9:53 AM,30.9,24.1,76,30.18,10.0,NNW,9.2,-,N/A,,Clear,330,2013-04-23 14:53:00
10:53 AM,32.0,23.0,69,30.16,10.0,NW,9.2,-,N/A,,Clear,310,2013-04-23 15:53:00
11:53 AM,34.0,23.0,64,30.16,10.0,NW,9.2,-,N/A,,Clear,310,2013-04-23 16:53:00
12:53 PM,36.0,24.1,62,30.14,10.0,NW,13.8,-,N/A,,Clear,320,2013-04-23 17:53:00
1:53 PM,37.9,23.0,55,30.12,10.0,NW,11.5,18.4,N/A,,Scattered Clouds,310,2013-04-23 18:53:00
2:53 PM,39.0,21.9,50,30.12,10.0,WNW,15.0,20.7,N/A,,Mostly Cloudy,300,2013-04-23 19:53:00
3:53 PM,39.0,21.0,49,30.11,10.0,NW,6.9,-,N/A,,Partly Cloudy,310,2013-04-23 20:53:00
4:53 PM,41.0,21.0,45,30.08,10.0,NW,11.5,-,N/A,,Scattered Clouds,310,2013-04-23 21:53:00
5:53 PM,41.0,19.0,41,30.08,10.0,NW,9.2,-,N/A,,Partly Cloudy,310,2013-04-23 22:53:00
6:53 PM,39.9,18.0,41,30.08,10.0,WNW,13.8,-,N/A,,Clear,300,2013-04-23 23:53:00
7:53 PM,37.0,17.1,44,30.08,10.0,WNW,12.7,-,N/A,,Clear,300,2013-04-24 00:53:00
8:53 PM,35.1,19.0,52,30.10,10.0,West,8.1,-,N/A,,Clear,280,2013-04-24 01:53:00
9:53 PM,33.1,19.9,59,30.12,10.0,West,9.2,-,N/A,,Clear,270,2013-04-24 02:53:00
10:53 PM,32.0,21.0,64,30.11,10.0,West,8.1,-,N/A,,Clear,280,2013-04-24 03:53:00
11:53 PM,30.9,21.0,67,30.09,10.0,WNW,5.8,-,N/A,,Clear,290,2013-04-24 04:53:00